This demonstration page uses our WeatherBlox Daily Observations layout. Learn more.

Left ArrowRight Arrow

31.31129, -92.44514

Hourly Observations for December 7, 2022

Temp ( °F °C ) Dew Point ( °F °C ) Humidity (%) Winds ( mph kmh ) Pressure ( in mb ) Visibility ( mi km ) Precip ( " mm )
12:14 am 00:14 Mostly Clear 70 21.1 67 19.4 90 90 S 7 11 30.11 1020 9 14 0.00 0.00
12:35 am 00:35 Mostly Cloudy 71 21.7 67 19.4 87 87 S 8 13 30.11 1020 9 14 0.00 0.00
12:53 am 00:53 Cloudy 71 21.7 68 20 90 90 SSW 8 13 30.12 1020 9 14 0.00 0.00
1:28 am 01:28 Cloudy 71 21.7 68 20 90 90 S 8 13 30.12 1020 9 14 0.00 0.00
1:53 am 01:53 Cloudy 72 22.2 68 20 87 87 SSW 9 15 30.13 1020 10 16 0.00 0.00
2:53 am 02:53 Cloudy 71 21.7 68 20 90 90 SW 7 11 30.15 1021 10 16 0.00 0.00
3:53 am 03:53 Partly Cloudy 71 21.7 67 19.4 87 87 SSW 6 9 30.16 1022 10 16 0.00 0.00
4:45 am 04:45 Partly Cloudy 70 21.1 66 18.9 87 87 SSW 5 7 30.16 1021 9 14 0.00 0.00
4:53 am 04:53 Mostly Cloudy 69 20.6 66 18.9 90 90 S 3 6 30.17 1022 8 13 0.00 0.00
5:53 am 05:53 Cloudy 71 21.7 68 20 90 90 SW 3 6 30.19 1022 8 13 0.00 0.00
6:53 am 06:53 Cloudy 71 21.7 68 20 90 90 SSW 3 6 30.21 1023 7 11 0.00 0.00
7:53 am 07:53 Cloudy with Mist and Fog 72 22.2 69 20.6 91 91 SSE 5 7 30.22 1023 5 8 0.00 0.00
8:50 am 08:50 Cloudy with Mist and Fog 72 22 70 21 94 94 SSE 7 11 30.23 1024 4 6 0.00 0.00
8:53 am 08:53 Cloudy with Mist and Fog 72 22.2 69 20.6 91 91 SSE 7 11 30.24 1024 3 5 0.00 0.00
9:53 am 09:53 Cloudy with Mist and Fog 73 22.8 70 21.1 90 90 SSE 8 13 30.25 1025 6 10 0.00 0.00
10:53 am 10:53 Cloudy 75 23.9 70 21.1 84 84 SSE 7 11 30.25 1025 8 13 0.00 0.00
11:53 am 11:53 Cloudy 75 23.9 70 21.1 84 84 ESE 7 11 30.23 1024 8 13 0.01 0.13
12:00 pm 12:00 Cloudy 75 23.9 70 21.1 84 84 SE 5 7 30.22 1023 8 13 0.00 0.00
12:15 pm 12:15 Cloudy 76 24.4 70 21.1 82 82 SE 5 7 30.21 1023 8 13 0.00 0.00
12:45 pm 12:45 Cloudy 76 24.4 71 21.7 85 85 Calm 30.20 1023 8 13 0.01 0.25
12:53 pm 12:53 Cloudy 77 25 71 21.7 82 82 SSE 7 11 30.20 1023 8 13 0.01 0.25
1:00 pm 13:00 Cloudy 77 25 71 21.7 82 82 SSE 8 13 30.20 1023 8 13 0.00 0.00
1:08 pm 13:08 Cloudy 77 25 70 21.1 79 79 SSE 8 13 30.19 1022 8 13 0.00 0.00
1:36 pm 13:36 Cloudy 77 25 70 21.1 79 79 SSE 7 11 30.18 1022 9 14 0.00 0.00
1:43 pm 13:43 Cloudy 78 25.6 71 21.7 79 79 S 7 11 30.18 1022 9 14 0.00 0.00
1:51 pm 13:51 Cloudy 79 26 70 21 74 74 S 8 13 30.18 1022 9 14 0.00 0.00
1:53 pm 13:53 Cloudy 78 25.6 70 21.1 76 76 S 7 11 30.19 1022 9 14 0.00 0.00
2:04 pm 14:04 Cloudy 78 25.6 70 21.1 76 76 S 6 9 30.18 1022 9 14 0.00 0.00
2:40 pm 14:40 Mostly Cloudy 79 26.1 70 21.1 74 74 S 8 13 30.17 1022 10 16 0.00 0.00
2:53 pm 14:53 Cloudy 78 25.6 70 21.1 76 76 SSE 9 15 30.18 1022 9 14 0.00 0.00
3:53 pm 15:53 Cloudy 78 25.6 71 21.7 79 79 S 7 11 30.18 1022 9 14 0.03 0.76
4:53 pm 16:53 Cloudy 76 24.4 69 20.6 79 79 S 6 9 30.19 1022 9 14 0.00 0.00
5:53 pm 17:53 Partly Cloudy 72 22.2 68 20 87 87 SSE 7 11 30.19 1022 9 14 0.00 0.00
6:53 pm 18:53 Mostly Cloudy 72 22.2 68 20 87 87 SSE 6 9 30.21 1023 9 14 0.00 0.00
7:53 pm 19:53 Partly Cloudy 69 20.6 66 18.9 90 90 SE 6 9 30.22 1023 7 11 0.00 0.00
8:53 pm 20:53 Clear with Mist and Fog 69 20.6 66 18.9 90 90 SSE 5 7 30.22 1023 6 10 0.00 0.00
9:53 pm 21:53 Clear with Mist and Fog 67 19.4 65 18.3 93 93 SE 6 9 30.22 1023 3 5 0.00 0.00
10:04 pm 22:04 Mostly Clear with Mist and Fog 66 18.9 64 17.8 93 93 SSE 6 9 30.22 1023 2 2 0.00 0.00
10:09 pm 22:09 Mostly Clear with Mist and Fog 67 19.4 65 18.3 93 93 SSE 6 9 30.22 1023 1 1 0.00 0.00
10:30 pm 22:30 Mostly Clear with Mist and Fog 66 18.9 65 18.3 96 96 SSE 5 7 30.22 1023 1 1 0.00 0.00
10:39 pm 22:39 Partly Cloudy with Mist and Fog 66 18.9 64 17.8 93 93 SSE 6 9 30.22 1023 1 2 0.00 0.00
10:43 pm 22:43 Mostly Clear with Mist and Fog 67 19.4 65 18.3 93 93 SSE 6 9 30.22 1023 3 5 0.00 0.00
10:53 pm 22:53 Mostly Clear with Mist and Fog 67 19.4 65 18.3 93 93 S 6 9 30.23 1024 4 6 0.00 0.00
11:08 pm 23:08 Partly Cloudy with Mist and Fog 68 20 66 18.9 93 93 S 7 11 30.22 1023 6 10 0.00 0.00
11:20 pm 23:20 Mostly Cloudy with Mist and Fog 69 20.6 67 19.4 93 93 S 6 9 30.22 1023 6 10 0.00 0.00
11:53 pm 23:53 Cloudy with Mist and Fog 70 21.1 68 20 93 93 S 7 11 30.22 1024 6 10 0.00 0.00

Powered by AerisWeather